User: anonymous   Login
Location: Simi Valley
(34.2690°N, 118.7810°W)
Time: 16:18:10
(UTC-07:00)
Language:

SAR-Lupe-1 - Orbit

View from above orbital plane
View from above orbital plane
View from above satellite
View from above satellite

Ground track
Ground track

The orbit data is extracted from the following two-line orbital elements,

1 29658U 06060A   17134.11953818 0.00001700  00000-0  63610-4 0    05
2 29658  98.1508 182.4143 0002000 309.4077  50.5922 15.27344453    09
Epoch (UTC): 14 May 2017 02:52:08
Eccentricity: 0.0002000
inclination: 98.1508°
perigee height: 482 km
apogee height: 485 km
right ascension of ascending node: 182.4143°
argument of perigee: 309.4077°
revolutions per day: 15.27344453
mean anomaly at epoch: 50.5922°
orbit number at epoch: 0

The dashed part of the orbit path shows where the satellite is in the earth's shadow,  

DLR